Location: Artiguedieu
(43.5000°N, 0.5454°E)
Time: 21:19:09
(UTC+00:00)

Vanguard 1 - Pass Details

Date: 31 July 2021
Orbit: 652 x 3831 km, 34.3° (Epoch: 19 September)

Event Time Altitude Azimuth Distance (km) Brightness Sun altitude
Rises 17:26:58 0° 266° (W) 4,960 15.2 19.0°
Reaches altitude 10° 17:31:12 10° 249° (WSW) 4,466 14.7 18.2°
Maximum altitude 17:39:12 19° 211° (SSW) 4,594 13.9 16.8°
Drops below altitude 10° 17:50:02 10° 174° (S) 6,213 14.0 14.8°
Sets 17:58:00 0° 160° (SSE) 7,679 14.3 13.4°
